Regional Weather Roundup
Issued by NWS

Home | Current Version | Previous Version | Graphics & Text | Print | Product List | Glossary On
Versions: 1 2 3 4 5 6 7 8 9 10 11 12 13 14 15 16 17 18 19 20 21 22 23 24 25 26 27 28 29 30 31 32 33 34 35 36 37 38 39 40 41 42 43 44 45 46 47 48 49 50
000
ASUS45 KSLC 270510
RWRUT

UTAH REGIONAL WEATHER ROUNDUP
NATIONAL WEATHER SERVICE SALT LAKE CITY UT
1100 PM MDT WED AUG 26 2015

UTZ001>011-023>025-270600-

NORTHERN UTAH

CITY           SKY/WX    TMP DP  RH WIND       PRES   REMARKS
BRIGHAM CITY   PTCLDY    69  58  68 CALM      30.17F
HILL AFB       PTCLDY    67  60  78 E9        30.20S
LOGAN          PTCLDY    67  60  78 S5        30.19F
OGDEN          PTCLDY    67  58  72 S7        30.17F
PROVO AIRPORT  CLOUDY    70  57  64 W3        30.20R
SALT LAKE CITY MOCLDY    72  56  57 SE5       30.16R
VERNAL         CLOUDY    66  56  70 CALM      30.25S
WENDOVER       PTCLDY    75  46  35 N12       30.17S
HEBER CITY     CLOUDY    59  55  88 CALM      30.27S
WEST JORDAN    CLEAR     70  55  60 CALM      30.20R

$$

UTZ012>022-026-027-270600-

SOUTHERN/CENTRAL UTAH

CITY           SKY/WX    TMP DP  RH WIND       PRES   REMARKS
BLANDING       PTCLDY    65  59  83 S5        30.40R
BRYCE CANYON   CLOUDY    56  52  86 W9        30.45R
CEDAR CITY     CLOUDY    61  57  87 SE9       30.31F
DELTA          CLOUDY    68  54  61 S13       30.22F
HANKSVILLE     PTCLDY    66  63  88 CALM      30.24S
MILFORD        MOCLDY    63  58  83 SW16      30.24F
MOAB/CYNLANDS  PTCLDY    66  63  90 CALM      30.22R
PRICE          PTCLDY    61  57  87 NE8       30.30S
ST GEORGE      CLOUDY    73  59  60 NE3       30.18R
KANAB          CLOUDY    63  63 100 CALM      30.33F

$$

REGIONAL REPORTS     COLORADO/ARIZONA

CITY           SKY/WX    TMP DP  RH WIND       PRES   REMARKS
CRAIG, CO      CLOUDY    60  56  86 CALM      30.32F
GRAND JUNCTION CLOUDY    64  62  93 N3        30.24S
RIFLE          CLOUDY    64  60  87 S6        30.27F
MONTROSE       CLOUDY    65  54  67 S6        30.31S
CORTEZ         PTCLDY    64  59  83 SW9       30.35R
PAGE, AZ       PTCLDY    72  61  68 W3        30.24R
GRAND CANYON   PTCLDY    54  53  97 CALM      30.40S
KINGMAN        MOCLDY    79  60  52 SE9       30.14R
FLAGSTAFF      CLEAR     56  54  93 CALM      30.43R

$$

REGIONAL REPORTS    NEVADA/IDAHO/WYOMING

CITY           SKY/WX    TMP DP  RH WIND       PRES   REMARKS
LAS VEGAS, NV  PTCLDY    91  55  29 E15       29.99R
ELY            MOCLDY    57  53  86 S9        30.32F
ELKO           PTCLDY    74  47  38 E5        30.20R
POCATELLO, ID  CLEAR     63  53  70 W3        30.20R
BURLEY         PTCLDY    70  49  47 N7        30.18R
EVANSTON, WY   LGT RAIN  57  55  93 SW3       30.36S FOG
ROCK SPRINGS   CLOUDY    58  53  84 E9        30.33F
KEMMERER       CLOUDY    59  50  72 CALM      30.36S

$$


USA.gov is the U.S. government's official web portal to all federal, state and local government web resources and services.